This demonstration page uses our WeatherBlox Daily Observations layout. Learn more.

Left ArrowRight Arrow

41.86663, -103.66717

Hourly Observations for April 16, 2016

Temp ( °F °C ) Dew Point ( °F °C ) Humidity (%) Winds ( mph kmh ) Pressure ( in mb ) Visibility ( mi km ) Precip ( " mm )
12:53 am 00:53 Cloudy with Light Rain 43 6.1 39 3.9 86 86 N 16 26 29.92 1013 10 16 0.06 1.52
1:53 am 01:53 Cloudy with Light Rain 42 5.6 38 3.3 85 85 N 15 24 29.93 1014 10 16 0.02 0.51
2:53 am 02:53 Cloudy with Light Rain 41 5 38 3.3 89 89 NNW 14 22 29.97 1015 8 13 0.07 1.78
3:53 am 03:53 Cloudy with Light Rain 40 4.4 37 2.8 89 89 NNW 12 19 29.99 1016 9 14 0.06 1.52
4:53 am 04:53 Cloudy with Light Rain 41 5 37 2.8 86 86 N 14 22 30.01 1016 10 16 0.04 1.02
5:15 am 05:15 Cloudy with Light Rain 40 4.4 37 2.8 89 89 N 13 20 30.03 1017 10 16 N/A
5:53 am 05:53 Cloudy with Light Rain 40 4.4 37 2.8 89 89 N 14 22 30.01 1016 10 16 0.01 0.25
6:15 am 06:15 Cloudy with Light Rain 39 3.9 37 2.8 93 93 NW 10 17 30.09 1019 10 16 N/A
6:53 am 06:53 Cloudy with Light Rain 40 4.4 37 2.8 89 89 NNW 21 33 30.06 1018 10 16 N/A
7:53 am 07:53 Cloudy with Light Rain 39 3.9 36 2.2 89 89 NNW 20 31 30.11 1020 10 16 0.03 0.76
8:53 am 08:53 Cloudy 40 4.4 33 0.6 77 77 NNW 29 46 30.10 1019 10 16 N/A
9:53 am 09:53 Cloudy 42 5.6 33 0.6 71 71 N 20 31 30.11 1020 10 16 N/A
10:21 am 10:21 Cloudy 42 5.6 32 undefined 68 68 N 22 35 30.15 1021 10 16 N/A
10:53 am 10:53 Cloudy 43 6.1 33 0.6 68 68 NNW 24 39 30.13 1020 10 16 N/A
11:53 am 11:53 Cloudy 45 7.2 33 0.6 63 63 N 21 33 30.12 1020 10 16 N/A
12:50 pm 12:50 Cloudy 45 7 32 undefined 61 61 N 22 35 30.12 1020 10 16 N/A
12:53 pm 12:53 Cloudy 44 6.7 32 undefined 63 63 N 20 31 30.12 1020 10 16 N/A
1:01 pm 13:01 Cloudy 44 6.7 33 0.6 65 65 N 20 31 30.15 1021 10 16 N/A
1:53 pm 13:53 Cloudy 44 6.7 32 undefined 63 63 N 23 37 30.14 1021 10 16 N/A
2:53 pm 14:53 Cloudy 44 6.7 32 undefined 63 63 N 25 41 30.12 1020 10 16 N/A
3:53 pm 15:53 Cloudy 44 6.7 32 undefined 63 63 N 22 35 30.13 1020 10 16 N/A
4:53 pm 16:53 Cloudy with Light Rain 41 5 36 2.2 82 82 N 18 30 30.15 1021 8 13 N/A
5:46 pm 17:46 Cloudy with Light Rain 39 3.9 35 1.7 86 86 NNE 16 26 30.18 1022 6 10 0.11 2.79
5:53 pm 17:53 Cloudy with Light Rain 39 3.9 35 1.7 86 86 NNE 15 24 30.18 1022 7 11 0.12 3.05
6:10 pm 18:10 Cloudy with Light Rain 37 3 36 2 93 93 NNE 12 19 30.21 1023 7 11 N/A
6:48 pm 18:48 Cloudy with Heavy Rain 36 2 34 1 93 93 NNE 9 15 30.24 1024 3 4 N/A
6:53 pm 18:53 Cloudy with Light Snow 35 1.7 33 0.6 93 93 N 10 17 30.22 1023 2 3 0.09 2.29
7:22 pm 19:22 Cloudy with Light Snow 34 1 32 undefined 93 93 N 14 22 30.24 1024 2 3 N/A
7:32 pm 19:32 Cloudy with Light Snow 34 1 34 1 100 100 N 10 17 30.24 1024 3 5 N/A
7:53 pm 19:53 Cloudy with Light Snow 34 1.1 33 0.6 97 97 NNW 6 9 30.22 1023 4 6 0.08 2.03
8:09 pm 20:09 Cloudy with Light Snow 35 1.7 32 undefined 89 89 N 10 17 30.24 1024 8 13 0.01 0.25
8:27 pm 20:27 Cloudy 35 1.7 33 0.6 93 93 N 13 20 30.24 1024 10 16 0.01 0.25
8:53 pm 20:53 Cloudy 36 2.2 33 0.6 89 89 NNW 12 19 30.25 1024 10 16 0.01 0.25
9:53 pm 21:53 Cloudy with Light Snow 36 2.2 33 0.6 89 89 N 15 24 30.26 1025 5 8 N/A
10:09 pm 22:09 Cloudy with Light Snow 35 1.7 33 0.6 93 93 NNW 14 22 30.33 1027 6 10 0.01 0.25
10:25 pm 22:25 Cloudy with Light Snow 35 1.7 33 0.6 93 93 NW 9 15 30.30 1026 5 8 0.02 0.51
10:53 pm 22:53 Cloudy with Light Snow 35 1.7 33 0.6 93 93 NW 9 15 30.26 1025 7 11 0.03 0.76
11:39 pm 23:39 Cloudy with Light Snow 34 1.1 32 undefined 92 92 N 8 13 30.27 1025 4 6 0.02 0.51
11:53 pm 23:53 Cloudy with Light Snow 35 1.7 33 0.6 93 93 N 13 20 30.22 1023 7 11 0.02 0.51

Powered by AerisWeather